Location: Morgantown
(40.9734°N, 80.6323°W)
Time: 22:50:35
(UTC+00:00)

Cosmos 44 Rocket - Pass Details

Date: 29 October 2020
Orbit: 642 x 748 km, 65.1° (Epoch: 02 December)

Event Time Altitude Azimuth Distance (km) Brightness Sun altitude
Rises 23:05:56 0° 183° (S) 2,962 6.7 -9.0°
Reaches altitude 10° 23:08:25 10° 172° (S) 2,070 5.8 -9.4°
Maximum altitude 23:12:27 29° 112° (ESE) 1,227 4.1 -10.2°
Enters shadow 23:16:15 12° 55° (NE) 2,013 5.1 -10.9°
